ONEWEB-0133

Last updated on Mon Jan 18 2021 00:02:03 GMT+0000 (Coordinated Universal Time)

1 47279U 20100X 21017.58334491 -.01431976 00000-0 -74088-1 0 9991 2 47279 87.4515 29.0258 0013327 152.7996 12.5347 15.19684205 1815

Satellite not in orbit